�������l�o���
Date,Time,MP-1(��Sv/h),MP-2(��Sv/h),MP-3(��Sv/h),MP-4(��Sv/h),MP-5(��Sv/h),MP-6(��Sv/h),MP-7(��Sv/h),MP-8(��Sv/h),����,����(m/s),���J
2017/04/27,00:00,1.021,1.644,1.100,1.985,1.357,0.545,0.997,0.924,�k�k��,4.5,�L
2017/04/27,00:10,1.019,1.642,1.098,1.985,1.356,0.548,0.998,0.924,�k�k��,4.2,�L
2017/04/27,00:20,1.021,1.641,1.099,1.984,1.357,0.547,0.997,0.925,�k�k��,3.7,�L
2017/04/27,00:30,1.020,1.639,1.102,1.985,1.357,0.546,0.999,0.924,�k�k��,2.3,�L
2017/04/27,00:40,1.017,1.640,1.099,1.982,1.352,0.546,0.998,0.925,�k�k��,7.9,�L
2017/04/27,00:50,1.018,1.634,1.097,1.979,1.347,0.547,0.999,0.923,�k,5.0,�L
2017/04/27,01:00,1.013,1.631,1.094,1.974,1.349,0.547,0.996,0.923,�k,5.9,�L
2017/04/27,01:10,1.013,1.630,1.095,1.979,1.344,0.546,0.995,0.923,�k,7.1,�L
2017/04/27,01:20,1.010,1.626,1.094,1.973,1.342,0.545,0.992,0.922,�k,7.0,�L
2017/04/27,01:30,1.010,1.622,1.089,1.966,1.337,0.545,0.992,0.920,�k,5.9,�L
2017/04/27,01:40,1.007,1.619,1.088,1.961,1.338,0.545,0.992,0.919,�k�k��,5.7,�L
2017/04/27,01:50,1.006,1.614,1.085,1.960,1.335,0.543,0.990,0.918,�k,6.8,�L
2017/04/27,02:00,1.001,1.614,1.084,1.959,1.331,0.545,0.990,0.916,�k,7.6,�L
2017/04/27,02:10,1.003,1.611,1.080,1.950,1.331,0.541,0.988,0.916,�k,7.4,�L
2017/04/27,02:20,1.000,1.608,1.080,1.951,1.328,0.545,0.989,0.916,�k,7.3,�L
2017/04/27,02:30,1.002,1.607,1.080,1.948,1.326,0.544,0.986,0.917,�k,8.2,�L
2017/04/27,02:40,1.001,1.607,1.079,1.945,1.325,0.542,0.988,0.919,�k,7.3,�L
2017/04/27,02:50,1.000,1.604,1.078,1.942,1.325,0.542,0.985,0.916,�k,7.8,�L
2017/04/27,03:00,1.000,1.603,1.076,1.938,1.325,0.544,0.987,0.917,�k,7.5,�L
2017/04/27,03:10,0.999,1.606,1.075,1.939,1.324,0.541,0.985,0.917,�k,7.9,�L
2017/04/27,03:20,0.999,1.604,1.075,1.938,1.324,0.540,0.985,0.916,�k,8.2,�L
2017/04/27,03:30,0.999,1.604,1.076,1.941,1.324,0.541,0.986,0.917,�k,7.8,�L
2017/04/27,03:40,0.997,1.604,1.076,1.937,1.321,0.542,0.985,0.916,�k�k��,6.8,�L
2017/04/27,03:50,0.996,1.603,1.076,1.938,1.321,0.542,0.987,0.917,�k,7.8,�L
2017/04/27,04:00,0.997,1.600,1.073,1.931,1.320,0.542,0.987,0.916,�k,6.6,�L
2017/04/27,04:10,0.996,1.596,1.074,1.933,1.319,0.541,0.987,0.917,�k,7.5,�L
2017/04/27,04:20,0.995,1.599,1.073,1.933,1.318,0.541,0.987,0.915,�k,6.6,�L
2017/04/27,04:30,0.994,1.595,1.070,1.929,1.316,0.542,0.986,0.915,�k,6.1,�L
2017/04/27,04:40,0.995,1.596,1.072,1.928,1.316,0.539,0.986,0.915,�k,5.2,�L
2017/04/27,04:50,0.995,1.596,1.070,1.929,1.318,0.540,0.986,0.914,�k,5.3,�L
2017/04/27,05:00,0.994,1.596,1.071,1.926,1.315,0.541,0.986,0.916,�k,6.0,�L
2017/04/27,05:10,0.996,1.594,1.070,1.925,1.318,0.541,0.984,0.916,�k,4.8,�L
2017/04/27,05:20,0.995,1.595,1.071,1.925,1.317,0.541,0.988,0.915,�k,4.3,�L
2017/04/27,05:30,0.995,1.596,1.071,1.926,1.316,0.539,0.986,0.916,�k,4.3,�L
2017/04/27,05:40,0.993,1.596,1.069,1.929,1.315,0.537,0.989,0.915,�k�k��,4.0,�L
2017/04/27,05:50,0.993,1.595,1.070,1.926,1.316,0.537,0.988,0.915,�k,4.6,�L
2017/04/27,06:00,0.993,1.594,1.069,1.927,1.317,0.538,0.987,0.915,�k�k��,4.5,�L
2017/04/27,06:10,0.992,1.598,1.067,1.927,1.313,0.539,0.988,0.915,�k�k��,4.8,��
2017/04/27,06:20,0.993,1.596,1.069,1.927,1.316,0.538,0.987,0.915,�k�k��,6.0,��
2017/04/27,06:30,0.994,1.596,1.070,1.926,1.314,0.537,0.987,0.914,�k�k��,5.3,��
2017/04/27,06:40,0.993,1.595,1.070,1.928,1.316,0.537,0.989,0.916,�k�k��,4.7,��
2017/04/27,06:50,0.994,1.598,1.070,1.926,1.318,0.536,0.987,0.916,�k�k��,5.5,��
2017/04/27,07:00,0.994,1.594,1.070,1.927,1.317,0.539,0.987,0.913,�k�k��,5.8,��
2017/04/27,07:10,0.993,1.597,1.070,1.926,1.317,0.537,0.989,0.916,�k�k��,4.9,��
2017/04/27,07:20,0.996,1.593,1.070,1.929,1.316,0.536,0.987,0.916,�k�k��,5.2,��
2017/04/27,07:30,0.994,1.598,1.071,1.926,1.320,0.537,0.987,0.915,�k�k��,6.3,��
2017/04/27,07:40,0.994,1.595,1.072,1.930,1.318,0.537,0.988,0.915,�k,4.1,��
2017/04/27,07:50,0.995,1.600,1.070,1.928,1.318,0.538,0.988,0.916,�k,5.2,��
2017/04/27,08:00,0.996,1.601,1.069,1.932,1.319,0.537,0.988,0.916,�k,4.7,��
2017/04/27,08:10,0.993,1.601,1.071,1.929,1.320,0.538,0.989,0.918,�k�k��,5.3,��
2017/04/27,08:20,0.996,1.602,1.071,1.926,1.319,0.537,0.989,0.916,�k�k��,5.2,��
2017/04/27,08:30,0.996,1.600,1.072,1.932,1.323,0.538,0.987,0.916,�k,4.8,��
2017/04/27,08:40,0.997,1.604,1.072,1.932,1.318,0.538,0.989,0.916,�k,5.5,��
2017/04/27,08:50,0.998,1.604,1.072,1.931,1.322,0.540,0.989,0.916,�k�k��,5.0,��
2017/04/27,09:00,0.998,1.608,1.073,1.934,1.324,0.538,0.989,0.918,�k,5.5,��
2017/04/27,09:10,0.999,1.606,1.074,1.937,1.324,0.538,0.988,0.915,�k�k��,7.3,��
2017/04/27,09:20,0.998,1.604,1.074,1.938,1.323,0.538,0.986,0.916,�k,7.2,��
2017/04/27,09:30,1.000,1.603,1.074,1.937,1.326,0.536,0.990,0.916,�k�k��,7.0,��
2017/04/27,09:40,0.999,1.602,1.076,1.935,1.325,0.536,0.988,0.915,�k�k��,6.1,��
2017/04/27,09:50,0.998,1.604,1.078,1.936,1.324,0.536,0.991,0.917,�k�k��,7.7,��
2017/04/27,10:00,1.001,1.604,1.076,1.938,1.326,0.535,0.988,0.915,�k�k��,7.4,��
2017/04/27,10:10,1.000,1.606,1.078,1.938,1.328,0.535,0.988,0.915,�k�k��,7.9,��
2017/04/27,10:20,1.001,1.608,1.076,1.938,1.326,0.537,0.990,0.917,�k�k��,7.9,��
2017/04/27,10:30,1.003,1.609,1.079,1.938,1.330,0.536,0.990,0.915,�k�k��,6.7,��
2017/04/27,10:40,1.000,1.611,1.078,1.941,1.331,0.538,0.990,0.917,�k��,6.9,��
2017/04/27,10:50,1.001,1.610,1.080,1.941,1.332,0.539,0.991,0.915,�k�k��,7.0,��
2017/04/27,11:00,1.001,1.612,1.078,1.945,1.334,0.537,0.991,0.915,�k��,7.4,��
2017/04/27,11:10,1.002,1.616,1.079,1.945,1.334,0.537,0.990,0.916,�k��,7.4,��
2017/04/27,11:20,1.003,1.614,1.079,1.942,1.333,0.539,0.994,0.916,�k��,6.3,��
2017/04/27,11:30,1.001,1.617,1.077,1.939,1.338,0.538,0.993,0.914,�k��,6.7,��
2017/04/27,11:40,1.004,1.619,1.079,1.942,1.337,0.539,0.991,0.915,�k��,7.6,��
2017/04/27,11:50,1.006,1.617,1.081,1.943,1.335,0.538,0.995,0.917,�k��,7.0,��
2017/04/27,12:00,1.003,1.619,1.080,1.942,1.339,0.540,0.993,0.916,�k��,6.6,��
2017/04/27,12:10,1.007,1.619,1.082,1.941,1.338,0.541,0.994,0.916,�k��,3.8,��
2017/04/27,12:20,1.005,1.617,1.081,1.943,1.339,0.539,0.993,0.917,�k�k��,5.7,��
2017/04/27,12:30,1.006,1.619,1.080,1.946,1.338,0.541,0.995,0.916,�k�k��,5.3,��
2017/04/27,12:40,1.004,1.625,1.082,1.951,1.342,0.541,0.994,0.919,�k�k��,6.1,��
2017/04/27,12:50,1.004,1.618,1.082,1.949,1.340,0.538,0.993,0.919,�k��,5.8,��
2017/04/27,13:00,1.007,1.623,1.083,1.951,1.338,0.539,0.994,0.918,�k��,5.0,��
2017/04/27,13:10,1.009,1.624,1.083,1.950,1.341,0.540,0.993,0.918,�k��,3.3,��
2017/04/27,13:20,1.009,1.622,1.084,1.952,1.342,0.540,0.994,0.919,���k��,4.2,��
2017/04/27,13:30,1.007,1.623,1.087,1.951,1.344,0.538,0.994,0.917,���쓌,3.7,��
2017/04/27,13:40,1.008,1.625,1.083,1.953,1.344,0.539,0.994,0.918,�쓌,3.3,��
2017/04/27,13:50,1.012,1.627,1.083,1.952,1.346,0.541,0.994,0.918,���쓌,1.4,��
2017/04/27,14:00,1.012,1.625,1.086,1.953,1.344,0.541,0.995,0.918,���쓌,3.8,��
2017/04/27,14:10,1.012,1.626,1.085,1.951,1.344,0.539,0.996,0.917,�쓌,2.5,��
2017/04/27,14:20,1.013,1.629,1.085,1.957,1.340,0.544,0.996,0.917,��쓌,3.0,��
2017/04/27,14:30,1.011,1.627,1.088,1.954,1.343,0.541,0.996,0.917,���쓌,3.1,��
2017/04/27,14:40,1.012,1.630,1.089,1.954,1.342,0.543,0.996,0.918,���쓌,3.6,��
2017/04/27,14:50,1.012,1.631,1.088,1.953,1.342,0.541,0.995,0.918,���쓌,1.7,��
2017/04/27,15:00,1.012,1.631,1.089,1.954,1.343,0.542,0.997,0.917,�쓌,3.2,��
2017/04/27,15:10,1.013,1.633,1.090,1.950,1.344,0.543,0.995,0.921,�쓌,3.1,��
2017/04/27,15:20,1.013,1.631,1.088,1.950,1.342,0.542,0.998,0.918,��쓌,3.0,��
2017/04/27,15:30,1.010,1.632,1.089,1.953,1.350,0.543,0.996,0.920,��,3.7,��
2017/04/27,15:40,1.015,1.633,1.090,1.951,1.351,0.543,0.996,0.918,��쓌,4.3,��
2017/04/27,15:50,1.013,1.633,1.089,1.951,1.349,0.544,0.995,0.919,��쓌,3.3,��
2017/04/27,16:00,1.014,1.636,1.088,1.953,1.350,0.544,0.996,0.918,��쓌,3.8,��
2017/04/27,16:10,1.011,1.638,1.090,1.954,1.352,0.544,0.997,0.920,��,3.0,��
2017/04/27,16:20,1.013,1.633,1.090,1.958,1.351,0.543,0.994,0.919,��쓌,3.3,��
2017/04/27,16:30,1.013,1.639,1.091,1.955,1.352,0.544,0.996,0.919,��쓌,3.5,��
2017/04/27,16:40,1.012,1.640,1.091,1.956,1.350,0.545,0.993,0.921,��쓌,2.8,��
2017/04/27,16:50,1.015,1.636,1.094,1.953,1.350,0.544,0.997,0.921,��쓌,2.6,��
2017/04/27,17:00,1.015,1.640,1.093,1.954,1.350,0.544,0.995,0.923,��쓌,3.5,��
2017/04/27,17:10,1.014,1.638,1.092,1.954,1.351,0.546,0.996,0.924,��쓌,3.5,��
2017/04/27,17:20,1.013,1.639,1.091,1.957,1.350,0.544,0.994,0.924,��쓌,3.1,��
2017/04/27,17:30,1.015,1.638,1.091,1.954,1.351,0.544,0.995,0.923,��,4.0,��
2017/04/27,17:40,1.016,1.637,1.090,1.956,1.354,0.545,0.995,0.923,��,3.7,��
2017/04/27,17:50,1.017,1.640,1.092,1.961,1.351,0.547,0.995,0.923,��,3.7,��
2017/04/27,18:00,1.017,1.639,1.092,1.960,1.353,0.545,0.996,0.920,��쐼,3.9,��
2017/04/27,18:10,1.020,1.641,1.092,1.961,1.355,0.545,0.994,0.922,��,4.4,��
2017/04/27,18:20,1.018,1.641,1.093,1.958,1.355,0.544,0.993,0.921,��쐼,3.4,��
2017/04/27,18:30,1.019,1.641,1.094,1.959,1.354,0.544,0.995,0.923,��,3.3,��
2017/04/27,18:40,1.015,1.641,1.092,1.960,1.356,0.545,0.995,0.921,��쐼,4.0,��
2017/04/27,18:50,1.017,1.638,1.092,1.958,1.353,0.544,0.998,0.920,��쐼,4.1,��
2017/04/27,19:00,1.016,1.641,1.092,1.959,1.355,0.546,0.998,0.922,��쐼,5.1,��
2017/04/27,19:10,1.019,1.638,1.093,1.960,1.355,0.546,0.997,0.920,��쐼,4.3,��
2017/04/27,19:20,1.017,1.639,1.091,1.959,1.355,0.545,0.998,0.921,�쐼,4.4,��
2017/04/27,19:30,1.018,1.638,1.094,1.959,1.354,0.544,0.998,0.921,�쐼,3.7,��
2017/04/27,19:40,1.017,1.636,1.091,1.957,1.354,0.545,0.998,0.921,�쐼,3.2,��
2017/04/27,19:50,1.020,1.640,1.091,1.961,1.353,0.544,0.997,0.922,���쐼,3.1,��
2017/04/27,20:00,1.018,1.636,1.093,1.959,1.353,0.545,0.995,0.919,���쐼,3.6,��
2017/04/27,20:10,1.018,1.636,1.091,1.955,1.353,0.543,0.996,0.921,���쐼,3.7,��
2017/04/27,20:20,1.020,1.635,1.093,1.958,1.352,0.545,0.996,0.921,��,5.3,��
2017/04/27,20:30,1.018,1.636,1.092,1.959,1.351,0.547,0.996,0.923,���k��,7.2,��
2017/04/27,20:40,1.019,1.637,1.093,1.960,1.351,0.545,0.997,0.920,���k��,5.6,��
2017/04/27,20:50,1.018,1.637,1.091,1.959,1.353,0.545,0.996,0.923,���k��,4.7,��
2017/04/27,21:00,1.015,1.637,1.092,1.958,1.353,0.545,0.998,0.921,���k��,3.9,��
2017/04/27,21:10,1.018,1.635,1.093,1.960,1.354,0.544,0.995,0.921,���k��,4.3,��
2017/04/27,21:20,1.018,1.635,1.093,1.959,1.353,0.545,0.995,0.921,���k��,3.4,��
2017/04/27,21:30,1.016,1.637,1.094,1.958,1.353,0.544,0.995,0.920,�k��,2.8,��
2017/04/27,21:40,1.016,1.638,1.092,1.959,1.355,0.543,0.995,0.922,���k��,1.4,��
2017/04/27,21:50,1.018,1.636,1.092,1.957,1.353,0.544,0.997,0.922,�k,1.7,��
2017/04/27,22:00,1.018,1.634,1.094,1.961,1.352,0.544,0.997,0.922,�k�k��,2.0,��
2017/04/27,22:10,1.015,1.636,1.090,1.962,1.352,0.542,0.997,0.922,�k�k��,2.6,��
2017/04/27,22:20,1.015,1.637,1.092,1.958,1.354,0.543,0.996,0.921,�k�k��,3.3,��
2017/04/27,22:30,1.015,1.634,1.092,1.958,1.354,0.545,0.994,0.922,���k��,2.8,��
2017/04/27,22:40,1.014,1.636,1.090,1.956,1.351,0.542,0.995,0.920,���k��,2.6,��
2017/04/27,22:50,1.014,1.636,1.092,1.958,1.352,0.543,0.996,0.921,���k��,2.9,��
2017/04/27,23:00,1.015,1.636,1.092,1.957,1.352,0.543,0.997,0.922,�k��,3.0,��
2017/04/27,23:10,1.017,1.637,1.091,1.957,1.351,0.544,0.996,0.921,�k��,2.6,��
2017/04/27,23:20,1.015,1.635,1.094,1.958,1.353,0.544,0.996,0.921,�k�k��,1.1,��
2017/04/27,23:30,1.015,1.638,1.093,1.961,1.355,0.544,0.998,0.922,�k�k��,1.4,��
2017/04/27,23:40,1.017,1.638,1.093,1.960,1.354,0.544,0.997,0.923,-,CALM,��
2017/04/27,23:50,1.016,1.636,1.092,1.957,1.352,0.543,0.999,0.922,�k�k��,1.7,��
